| time (UTC) | temp F | wind direction | speed MPH | gust MPH | rain 1hr in | rain 24hr in | rain mn in | humidity % | barometer mb |
| 20260831191313 | 80 | 182 | 3.0 | 5.0 | 0.00 | 0.00 | 0.00 | 74 | 1020.4 |
| 20260831190845 | 80 | 180 | 2.0 | 5.0 | 0.00 | 0.00 | 0.00 | 73 | 1020.4 |
| 20260831190317 | 80 | 163 | 0.0 | 4.0 | 0.00 | 0.00 | 0.00 | 76 | 1020.5 |
| 20260831185827 | 80 | 143 | 2.0 | 4.0 | 0.00 | 0.00 | 0.00 | 73 | 1020.5 |
| 20260831185319 | 80 | 27 | 0.0 | 1.0 | 0.00 | 0.00 | 0.00 | 77 | 1020.5 |
| 20260831184831 | 80 | 27 | 0.0 | 2.0 | 0.00 | 0.00 | 0.00 | 74 | 1020.6 |
| 20260831184322 | 80 | 302 | 0.0 | 3.0 | 0.00 | 0.00 | 0.00 | 75 | 1020.6 |
| 20260831183818 | 80 | 288 | 1.0 | 3.0 | 0.00 | 0.00 | 0.00 | 76 | 1020.6 |
| 20260831183330 | 80 | 294 | 0.0 | 2.0 | 0.00 | 0.00 | 0.00 | 76 | 1020.6 |
| 20260831182842 | 80 | 299 | 0.0 | 2.0 | 0.00 | 0.00 | 0.00 | 76 | 1020.6 |
| 20260831182333 | 80 | 306 | 0.0 | 2.0 | 0.00 | 0.00 | 0.00 | 75 | 1020.6 |
| 20260831181824 | 80 | 226 | 0.0 | 1.0 | 0.00 | 0.00 | 0.00 | 74 | 1020.7 |
| 20260831181316 | 80 | 191 | 0.0 | 0.0 | 0.00 | 0.00 | 0.00 | 73 | 1020.6 |
| 20260831180828 | 80 | 191 | 0.0 | 0.0 | 0.00 | 0.00 | 0.00 | 74 | 1020.6 |
| 20260831180320 | 79 | 192 | 0.0 | 1.0 | 0.00 | 0.00 | 0.00 | 73 | 1020.7 |
| 20260831175813 | 79 | 190 | 0.0 | 0.0 | 0.00 | 0.00 | 0.00 | 76 | 1020.7 |
| 20260831175326 | 79 | 190 | 0.0 | 0.0 | 0.00 | 0.00 | 0.00 | 78 | 1020.7 |
| 20260831174817 | 79 | 190 | 0.0 | 2.0 | 0.00 | 0.00 | 0.00 | 78 | 1020.7 |
| 20260831174349 | 79 | 190 | 1.0 | 2.0 | 0.00 | 0.00 | 0.00 | 78 | 1020.7 |
| 20260831173820 | 79 | 283 | 0.0 | 0.0 | 0.00 | 0.00 | 0.00 | 77 | 1020.7 |
| 20260831173332 | 79 | 297 | 0.0 | 0.0 | 0.00 | 0.00 | 0.00 | 77 | 1020.7 |
| 20260831172824 | 79 | 297 | 0.0 | 0.0 | 0.00 | 0.00 | 0.00 | 76 | 1020.7 |
| 20260831172316 | 79 | 297 | 0.0 | 0.0 | 0.00 | 0.00 | 0.00 | 75 | 1020.6 |
| 20260831171828 | 79 | 295 | 0.0 | 1.0 | 0.00 | 0.00 | 0.00 | 75 | 1020.7 |
| 20260831171323 | 80 | 265 | 0.0 | 1.0 | 0.00 | 0.00 | 0.00 | 77 | 1020.8 |
| 20260831170328 | 79 | 192 | 0.0 | 2.0 | 0.00 | 0.00 | 0.00 | 77 | 1020.9 |
| 20260831165819 | 79 | 192 | 0.0 | 3.0 | 0.00 | 0.00 | 0.00 | 76 | 1020.9 |
| 20260831165331 | 80 | 192 | 1.0 | 3.0 | 0.00 | 0.00 | 0.00 | 75 | 1020.9 |
| 20260831164821 | 80 | 202 | 0.0 | 0.0 | 0.00 | 0.00 | 0.00 | 76 | 1020.9 |
| 20260831164333 | 80 | 233 | 0.0 | 1.0 | 0.00 | 0.00 | 0.00 | 75 | 1021.0 |
| 20260831163824 | 80 | 221 | 0.0 | 5.0 | 0.00 | 0.00 | 0.00 | 75 | 1020.9 |
| 20260831163320 | 80 | 171 | 0.0 | 6.0 | 0.00 | 0.00 | 0.00 | 74 | 1020.9 |
| 20260831162813 | 80 | 167 | 1.0 | 4.0 | 0.00 | 0.00 | 0.00 | 74 | 1021.0 |
| 20260831162325 | 80 | 180 | 0.0 | 3.0 | 0.00 | 0.00 | 0.00 | 76 | 1021.0 |
| 20260831161817 | 80 | 179 | 0.0 | 3.0 | 0.00 | 0.00 | 0.00 | 77 | 1021.0 |
| 20260831161329 | 79 | 173 | 0.0 | 5.0 | 0.00 | 0.00 | 0.00 | 75 | 1020.9 |
| 20260831160821 | 79 | 170 | 2.0 | 5.0 | 0.00 | 0.00 | 0.00 | 77 | 1021.0 |
| 20260831160313 | 79 | 88 | 0.0 | 3.0 | 0.00 | 0.00 | 0.00 | 77 | 1021.1 |
| 20260831155824 | 78 | 142 | 0.0 | 3.0 | 0.00 | 0.00 | 0.00 | 77 | 1021.1 |
| 20260831155320 | 78 | 171 | 0.0 | 3.0 | 0.00 | 0.00 | 0.00 | 79 | 1021.1 |
| 20260831154832 | 78 | 122 | 0.0 | 4.0 | 0.00 | 0.00 | 0.00 | 78 | 1021.1 |
| 20260831154324 | 78 | 40 | 1.0 | 4.0 | 0.00 | 0.00 | 0.00 | 79 | 1021.1 |
| 20260831153836 | 78 | 163 | 0.0 | 3.0 | 0.00 | 0.00 | 0.00 | 77 | 1021.1 |
| 20260831153328 | 78 | 145 | 0.0 | 4.0 | 0.00 | 0.00 | 0.00 | 78 | 1021.2 |
| 20260831152840 | 77 | 46 | 0.0 | 4.0 | 0.00 | 0.00 | 0.00 | 80 | 1021.3 |
| 20260831152332 | 77 | 39 | 2.0 | 4.0 | 0.00 | 0.00 | 0.00 | 79 | 1021.3 |
| 20260831151823 | 77 | 13 | 3.0 | 4.0 | 0.00 | 0.00 | 0.00 | 79 | 1021.3 |
| 20260831151315 | 77 | 301 | 0.0 | 4.0 | 0.00 | 0.00 | 0.00 | 79 | 1021.4 |
| 20260831150826 | 77 | 13 | 2.0 | 3.0 | 0.00 | 0.00 | 0.00 | 79 | 1021.4 |
| 20260831150322 | 77 | 308 | 1.0 | 4.0 | 0.00 | 0.00 | 0.00 | 80 | 1021.4 |
| 20260831145813 | 77 | 13 | 1.0 | 4.0 | 0.00 | 0.00 | 0.00 | 79 | 1021.4 |
| 20260831145325 | 77 | 309 | 3.0 | 4.0 | 0.00 | 0.00 | 0.00 | 80 | 1021.4 |
| 20260831144838 | 77 | 360 | 3.0 | 4.0 | 0.00 | 0.00 | 0.00 | 80 | 1021.4 |
| 20260831144349 | 77 | 316 | 0.0 | 4.0 | 0.00 | 0.00 | 0.00 | 81 | 1021.3 |
| 20260831143820 | 77 | 315 | 1.0 | 4.0 | 0.00 | 0.00 | 0.00 | 79 | 1021.2 |
| 20260831143332 | 77 | 40 | 0.0 | 3.0 | 0.00 | 0.00 | 0.00 | 80 | 1021.1 |
| 20260831142823 | 76 | 305 | 1.0 | 4.0 | 0.00 | 0.00 | 0.00 | 81 | 1021.1 |
| 20260831142337 | 76 | 9 | 2.0 | 4.0 | 0.00 | 0.00 | 0.00 | 80 | 1021.1 |
| 20260831141827 | 76 | 292 | 2.0 | 3.0 | 0.00 | 0.00 | 0.00 | 80 | 1021.0 |
| 20260831141323 | 76 | 315 | 0.0 | 0.0 | 0.00 | 0.00 | 0.00 | 80 | 1021.1 |
| 20260831140814 | 76 | 360 | 0.0 | 0.0 | 0.00 | 0.00 | 0.00 | 80 | 1021.0 |
| 20260831140326 | 76 | 9 | 0.0 | 0.0 | 0.00 | 0.00 | 0.00 | 80 | 1021.1 |
| 20260831135837 | 76 | 360 | 0.0 | 2.0 | 0.00 | 0.00 | 0.00 | 81 | 1021.1 |
| 20260831135328 | 76 | 9 | 0.0 | 2.0 | 0.00 | 0.00 | 0.00 | 81 | 1021.1 |
| 20260831134820 | 76 | 284 | 1.0 | 3.0 | 0.00 | 0.00 | 0.00 | 81 | 1021.2 |
| 20260831134314 | 76 | 290 | 0.0 | 4.0 | 0.00 | 0.00 | 0.00 | 81 | 1021.3 |
| 20260831133826 | 76 | 290 | 1.0 | 4.0 | 0.00 | 0.00 | 0.00 | 79 | 1021.3 |
| 20260831133323 | 76 | 292 | 2.0 | 4.0 | 0.00 | 0.00 | 0.00 | 79 | 1021.3 |
| 20260831132815 | 77 | 15 | 1.0 | 4.0 | 0.00 | 0.00 | 0.00 | 78 | 1021.2 |
| 20260831132326 | 77 | 304 | 2.0 | 4.0 | 0.00 | 0.00 | 0.00 | 78 | 1021.3 |
| 20260831131818 | 77 | 310 | 2.0 | 3.0 | 0.00 | 0.00 | 0.00 | 80 | 1021.3 |
| 20260831131351 | 76 | 129 | 0.0 | 3.0 | 0.00 | 0.00 | 0.00 | 79 | 1021.3 |
| 20260831130821 | 76 | 64 | 1.0 | 3.0 | 0.00 | 0.00 | 0.00 | 83 | 1021.3 |
| 20260831130313 | 74 | 168 | 0.0 | 3.0 | 0.00 | 0.00 | 0.00 | 81 | 1021.2 |
| 20260831125823 | 74 | 170 | 1.0 | 4.0 | 0.00 | 0.00 | 0.00 | 83 | 1021.2 |
| 20260831124831 | 73 | 174 | 2.0 | 4.0 | 0.00 | 0.00 | 0.00 | 83 | 1021.2 |
| 20260831124322 | 73 | 167 | 2.0 | 5.0 | 0.00 | 0.00 | 0.00 | 83 | 1021.2 |
| 20260831123816 | 73 | 150 | 0.0 | 1.0 | 0.00 | 0.00 | 0.00 | 84 | 1021.2 |
| 20260831123328 | 72 | 175 | 0.0 | 0.0 | 0.00 | 0.00 | 0.00 | 84 | 1021.3 |
| 20260831122819 | 72 | 181 | 0.0 | 0.0 | 0.00 | 0.00 | 0.00 | 85 | 1021.2 |
| 20260831122332 | 71 | 174 | 0.0 | 2.0 | 0.00 | 0.00 | 0.00 | 85 | 1021.2 |
| 20260831121824 | 71 | 169 | 0.0 | 2.0 | 0.00 | 0.00 | 0.00 | 85 | 1021.0 |
| 20260831121316 | 71 | 182 | 0.0 | 1.0 | 0.00 | 0.00 | 0.00 | 86 | 1021.1 |
| 20260831120831 | 71 | 184 | 0.0 | 1.0 | 0.00 | 0.00 | 0.00 | 86 | 1021.0 |
| 20260831120323 | 70 | 288 | 0.0 | 2.0 | 0.00 | 0.00 | 0.00 | 87 | 1021.0 |
| 20260831115832 | 70 | 295 | 0.0 | 2.0 | 0.00 | 0.00 | 0.00 | 87 | 1020.9 |
| 20260831115324 | 70 | 179 | 0.0 | 0.0 | 0.00 | 0.00 | 0.00 | 88 | 1020.9 |
| 20260831114836 | 69 | 178 | 0.0 | 3.0 | 0.00 | 0.00 | 0.00 | 88 | 1020.9 |
| 20260831114327 | 69 | 178 | 0.0 | 3.0 | 0.00 | 0.00 | 0.00 | 87 | 1020.9 |
| 20260831113819 | 69 | 171 | 1.0 | 2.0 | 0.00 | 0.00 | 0.00 | 87 | 1020.8 |
| 20260831113331 | 69 | 166 | 0.0 | 1.0 | 0.00 | 0.00 | 0.00 | 87 | 1020.8 |
| 20260831112823 | 70 | 166 | 0.0 | 1.0 | 0.00 | 0.00 | 0.00 | 87 | 1020.7 |
| 20260831112318 | 69 | 166 | 0.0 | 1.0 | 0.00 | 0.00 | 0.00 | 87 | 1020.7 |
| 20260831111831 | 69 | 158 | 0.0 | 0.0 | 0.00 | 0.00 | 0.00 | 87 | 1020.7 |
| 20260831111322 | 69 | 158 | 0.0 | 0.0 | 0.00 | 0.00 | 0.00 | 87 | 1020.7 |
| 20260831110814 | 69 | 158 | 0.0 | 0.0 | 0.00 | 0.00 | 0.00 | 87 | 1020.6 |
| 20260831110326 | 69 | 158 | 0.0 | 1.0 | 0.00 | 0.00 | 0.00 | 87 | 1020.6 |
| 20260831105816 | 69 | 158 | 0.0 | 1.0 | 0.00 | 0.00 | 0.00 | 87 | 1020.5 |
| 20260831105328 | 69 | 153 | 0.0 | 0.0 | 0.00 | 0.00 | 0.00 | 86 | 1020.4 |
| 20260831104821 | 70 | 153 | 0.0 | 0.0 | 0.00 | 0.00 | 0.00 | 86 | 1020.4 |
| 20260831104316 | 70 | 153 | 0.0 | 0.0 | 0.00 | 0.00 | 0.00 | 86 | 1020.5 |
| 20260831103828 | 70 | 152 | 0.0 | 0.0 | 0.00 | 0.00 | 0.00 | 85 | 1020.4 |
| 20260831103320 | 70 | 153 | 0.0 | 0.0 | 0.00 | 0.00 | 0.00 | 85 | 1020.3 |
| 20260831102832 | 70 | 153 | 0.0 | 0.0 | 0.00 | 0.00 | 0.00 | 85 | 1020.4 |
| 20260831102323 | 70 | 153 | 0.0 | 0.0 | 0.00 | 0.00 | 0.00 | 85 | 1020.5 |
| 20260831101816 | 70 | 178 | 0.0 | 0.0 | 0.00 | 0.00 | 0.00 | 85 | 1020.4 |
| 20260831101329 | 70 | 179 | 0.0 | 0.0 | 0.00 | 0.00 | 0.00 | 85 | 1020.3 |
| 20260831100840 | 70 | 179 | 0.0 | 0.0 | 0.00 | 0.00 | 0.00 | 85 | 1020.2 |
| 20260831100352 | 70 | 179 | 0.0 | 2.0 | 0.00 | 0.00 | 0.00 | 86 | 1020.1 |
| 20260831095824 | 70 | 179 | 0.0 | 2.0 | 0.00 | 0.00 | 0.00 | 86 | 1020.0 |
| 20260831095316 | 70 | 201 | 0.0 | 1.0 | 0.00 | 0.00 | 0.00 | 87 | 1019.9 |
| 20260831094829 | 70 | 212 | 0.0 | 0.0 | 0.00 | 0.00 | 0.00 | 87 | 1020.1 |
| 20260831094320 | 70 | 214 | 0.0 | 0.0 | 0.00 | 0.00 | 0.00 | 86 | 1020.1 |
| 20260831093833 | 70 | 211 | 0.0 | 3.0 | 0.00 | 0.00 | 0.00 | 86 | 1020.0 |
| 20260831093344 | 70 | 277 | 1.0 | 3.0 | 0.00 | 0.00 | 0.00 | 85 | 1020.1 |
| 20260831092815 | 71 | 292 | 0.0 | 2.0 | 0.00 | 0.00 | 0.00 | 84 | 1020.0 |
| 20260831092328 | 71 | 213 | 0.0 | 0.0 | 0.00 | 0.00 | 0.00 | 84 | 1019.9 |
| 20260831091820 | 71 | 213 | 0.0 | 0.0 | 0.00 | 0.00 | 0.00 | 84 | 1019.9 |
| 20260831091316 | 71 | 213 | 0.0 | 0.0 | 0.00 | 0.00 | 0.00 | 84 | 1019.8 |
| 20260831090848 | 71 | 213 | 0.0 | 0.0 | 0.00 | 0.00 | 0.00 | 84 | 1019.8 |
| 20260831090318 | 71 | 213 | 0.0 | 0.0 | 0.00 | 0.00 | 0.00 | 84 | 1019.7 |
| 20260831085828 | 71 | 219 | 0.0 | 0.0 | 0.00 | 0.00 | 0.00 | 84 | 1019.6 |
| 20260831085319 | 71 | 219 | 0.0 | 0.0 | 0.00 | 0.00 | 0.00 | 84 | 1019.7 |
| 20260831084832 | 70 | 219 | 0.0 | 0.0 | 0.00 | 0.00 | 0.00 | 84 | 1019.8 |
| 20260831084324 | 70 | 219 | 0.0 | 0.0 | 0.00 | 0.00 | 0.00 | 84 | 1019.9 |
| 20260831083816 | 70 | 219 | 0.0 | 0.0 | 0.00 | 0.00 | 0.00 | 84 | 1019.9 |
| 20260831083327 | 70 | 219 | 0.0 | 0.0 | 0.00 | 0.00 | 0.00 | 84 | 1020.0 |
| 20260831082823 | 70 | 219 | 0.0 | 0.0 | 0.00 | 0.00 | 0.00 | 85 | 1020.0 |
| 20260831082315 | 70 | 219 | 0.0 | 0.0 | 0.00 | 0.00 | 0.00 | 85 | 1020.0 |
| 20260831081828 | 70 | 219 | 0.0 | 0.0 | 0.00 | 0.00 | 0.00 | 84 | 1020.0 |
| 20260831081320 | 70 | 219 | 0.0 | 0.0 | 0.00 | 0.00 | 0.00 | 84 | 1020.0 |
| 20260831080832 | 70 | 219 | 0.0 | 0.0 | 0.00 | 0.00 | 0.00 | 84 | 1020.0 |
| 20260831080345 | 71 | 218 | 0.0 | 0.0 | 0.00 | 0.00 | 0.00 | 83 | 1019.9 |
| 20260831075813 | 71 | 217 | 0.0 | 0.0 | 0.00 | 0.00 | 0.00 | 82 | 1019.8 |
| 20260831075325 | 71 | 217 | 0.0 | 1.0 | 0.00 | 0.00 | 0.00 | 82 | 1019.8 |
| 20260831074821 | 71 | 217 | 0.0 | 1.0 | 0.00 | 0.00 | 0.00 | 82 | 1019.8 |
| 20260831074333 | 71 | 214 | 0.0 | 0.0 | 0.00 | 0.00 | 0.00 | 81 | 1019.7 |
| 20260831073825 | 72 | 210 | 0.0 | 0.0 | 0.00 | 0.00 | 0.00 | 81 | 1019.7 |
| 20260831073317 | 72 | 210 | 0.0 | 0.0 | 0.00 | 0.00 | 0.00 | 81 | 1019.6 |
| 20260831072829 | 72 | 211 | 0.0 | 0.0 | 0.00 | 0.00 | 0.00 | 80 | 1019.6 |
| 20260831072320 | 72 | 211 | 0.0 | 0.0 | 0.00 | 0.00 | 0.00 | 80 | 1019.6 |
| 20260831071832 | 72 | 211 | 0.0 | 0.0 | 0.00 | 0.00 | 0.00 | 80 | 1019.6 |
| 20260831071323 | 72 | 209 | 0.0 | 0.0 | 0.00 | 0.00 | 0.00 | 80 | 1019.6 |
| 20260831070819 | 72 | 209 | 0.0 | 0.0 | 0.00 | 0.00 | 0.00 | 80 | 1019.6 |
| 20260831070332 | 72 | 166 | 0.0 | 0.0 | 0.00 | 0.00 | 0.00 | 81 | 1019.5 |
| 20260831065842 | 72 | 164 | 0.0 | 0.0 | 0.00 | 0.00 | 0.00 | 81 | 1019.6 |
| 20260831065333 | 72 | 164 | 0.0 | 0.0 | 0.00 | 0.00 | 0.00 | 81 | 1019.5 |
| 20260831064824 | 72 | 164 | 0.0 | 2.0 | 0.00 | 0.00 | 0.00 | 80 | 1019.6 |
| 20260831064315 | 72 | 165 | 0.0 | 2.0 | 0.00 | 0.00 | 0.00 | 80 | 1019.7 |
| 20260831063827 | 72 | 162 | 0.0 | 2.0 | 0.00 | 0.00 | 0.00 | 81 | 1019.7 |
| 20260831063319 | 72 | 171 | 0.0 | 2.0 | 0.00 | 0.00 | 0.00 | 80 | 1019.7 |
| 20260831062851 | 72 | 168 | 0.0 | 2.0 | 0.00 | 0.00 | 0.00 | 80 | 1019.8 |
| 20260831061817 | 72 | 169 | 0.0 | 1.0 | 0.00 | 0.00 | 0.00 | 80 | 1019.9 |
| 20260831061330 | 72 | 180 | 0.0 | 3.0 | 0.00 | 0.00 | 0.00 | 81 | 1019.9 |
| 20260831060821 | 72 | 175 | 0.0 | 3.0 | 0.00 | 0.00 | 0.00 | 81 | 1020.0 |
| 20260831060353 | 72 | 169 | 1.0 | 5.0 | 0.00 | 0.00 | 0.00 | 81 | 1020.1 |
| 20260831055822 | 72 | 171 | 1.0 | 4.0 | 0.00 | 0.00 | 0.00 | 81 | 1020.1 |
| 20260831055331 | 72 | 168 | 0.0 | 1.0 | 0.00 | 0.00 | 0.00 | 81 | 1020.1 |
| 20260831054823 | 72 | 167 | 0.0 | 3.0 | 0.00 | 0.00 | 0.00 | 81 | 1020.1 |
| 20260831054314 | 72 | 173 | 0.0 | 2.0 | 0.00 | 0.00 | 0.00 | 81 | 1020.1 |
| 20260831053826 | 72 | 181 | 0.0 | 3.0 | 0.00 | 0.00 | 0.00 | 80 | 1020.1 |
| 20260831053322 | 72 | 166 | 1.0 | 4.0 | 0.00 | 0.00 | 0.00 | 80 | 1020.1 |
| 20260831052833 | 73 | 166 | 1.0 | 5.0 | 0.00 | 0.00 | 0.00 | 79 | 1020.1 |
| 20260831052325 | 73 | 165 | 3.0 | 5.0 | 0.00 | 0.00 | 0.00 | 79 | 1020.1 |
| 20260831051817 | 73 | 167 | 1.0 | 4.0 | 0.00 | 0.00 | 0.00 | 79 | 1020.0 |
| 20260831051329 | 73 | 177 | 1.0 | 4.0 | 0.00 | 0.00 | 0.00 | 79 | 1020.1 |
| 20260831050821 | 73 | 171 | 1.0 | 4.0 | 0.00 | 0.00 | 0.00 | 78 | 1020.1 |
| 20260831050332 | 74 | 161 | 1.0 | 3.0 | 0.00 | 0.00 | 0.00 | 78 | 1020.2 |
| 20260831045822 | 74 | 159 | 1.0 | 3.0 | 0.00 | 0.00 | 0.00 | 77 | 1020.1 |
| 20260831045318 | 74 | 164 | 1.0 | 4.0 | 0.00 | 0.00 | 0.00 | 76 | 1020.2 |
| 20260831044830 | 74 | 169 | 1.0 | 4.0 | 0.00 | 0.00 | 0.00 | 75 | 1020.2 |
| 20260831044342 | 74 | 162 | 1.0 | 5.0 | 0.00 | 0.00 | 0.00 | 76 | 1020.3 |
| 20260831043832 | 74 | 170 | 1.0 | 4.0 | 0.00 | 0.00 | 0.00 | 75 | 1020.3 |
| 20260831043323 | 74 | 175 | 1.0 | 4.0 | 0.00 | 0.00 | 0.00 | 75 | 1020.2 |
| 20260831042816 | 74 | 167 | 0.0 | 3.0 | 0.00 | 0.00 | 0.00 | 75 | 1020.3 |
| 20260831042328 | 74 | 167 | 1.0 | 3.0 | 0.00 | 0.00 | 0.00 | 75 | 1020.3 |
| 20260831041821 | 74 | 167 | 0.0 | 2.0 | 0.00 | 0.00 | 0.00 | 76 | 1020.3 |
| 20260831041317 | 73 | 167 | 0.0 | 2.0 | 0.00 | 0.00 | 0.00 | 76 | 1020.4 |
| 20260831040829 | 73 | 166 | 0.0 | 1.0 | 0.00 | 0.00 | 0.00 | 77 | 1020.4 |
| 20260831040319 | 73 | 165 | 0.0 | 1.0 | 0.00 | 0.00 | 0.00 | 78 | 1020.4 |
| 20260831035829 | 73 | 165 | 0.0 | 1.0 | 0.00 | 0.00 | 0.00 | 79 | 1020.4 |
| 20260831035321 | 73 | 164 | 0.0 | 1.0 | 0.00 | 0.00 | 0.00 | 79 | 1020.5 |
| 20260831034813 | 73 | 173 | 0.0 | 0.0 | 0.00 | 0.00 | 0.00 | 79 | 1020.4 |
| 20260831034325 | 73 | 173 | 0.0 | 0.0 | 0.00 | 0.00 | 0.00 | 79 | 1020.4 |
| 20260831033816 | 73 | 173 | 0.0 | 2.0 | 0.00 | 0.00 | 0.00 | 80 | 1020.4 |
| 20260831033328 | 73 | 173 | 0.0 | 2.0 | 0.00 | 0.00 | 0.00 | 80 | 1020.4 |
| 20260831032824 | 74 | 173 | 0.0 | 1.0 | 0.00 | 0.00 | 0.00 | 79 | 1020.4 |
| 20260831032316 | 74 | 172 | 0.0 | 1.0 | 0.00 | 0.00 | 0.00 | 79 | 1020.4 |
| 20260831031828 | 74 | 172 | 0.0 | 2.0 | 0.00 | 0.00 | 0.00 | 79 | 1020.5 |
| 20260831031320 | 74 | 176 | 0.0 | 2.0 | 0.00 | 0.00 | 0.00 | 79 | 1020.5 |
| 20260831030832 | 75 | 177 | 0.0 | 1.0 | 0.00 | 0.00 | 0.00 | 79 | 1020.5 |
| 20260831030323 | 75 | 179 | 0.0 | 0.0 | 0.00 | 0.00 | 0.00 | 78 | 1020.6 |
| 20260831025833 | 75 | 179 | 0.0 | 2.0 | 0.00 | 0.00 | 0.00 | 77 | 1020.6 |
| 20260831025325 | 75 | 179 | 0.0 | 2.0 | 0.00 | 0.00 | 0.00 | 77 | 1020.6 |
| 20260831024821 | 75 | 173 | 0.0 | 2.0 | 0.00 | 0.00 | 0.00 | 77 | 1020.5 |
| 20260831024313 | 75 | 171 | 0.0 | 3.0 | 0.00 | 0.00 | 0.00 | 77 | 1020.4 |
| 20260831023845 | 75 | 172 | 2.0 | 3.0 | 0.00 | 0.00 | 0.00 | 76 | 1020.4 |
| 20260831023316 | 75 | 172 | 0.0 | 2.0 | 0.00 | 0.00 | 0.00 | 77 | 1020.4 |
| 20260831022828 | 75 | 173 | 0.0 | 2.0 | 0.00 | 0.00 | 0.00 | 77 | 1020.5 |
| 20260831022321 | 75 | 155 | 0.0 | 2.0 | 0.00 | 0.00 | 0.00 | 78 | 1020.5 |
| 20260831021832 | 75 | 142 | 0.0 | 1.0 | 0.00 | 0.00 | 0.00 | 78 | 1020.5 |
| 20260831021324 | 75 | 129 | 0.0 | 0.0 | 0.00 | 0.00 | 0.00 | 79 | 1020.6 |
| 20260831020820 | 75 | 129 | 0.0 | 0.0 | 0.00 | 0.00 | 0.00 | 79 | 1020.6 |
| 20260831020332 | 75 | 130 | 0.0 | 0.0 | 0.00 | 0.00 | 0.00 | 79 | 1020.6 |
| 20260831015821 | 75 | 130 | 0.0 | 0.0 | 0.00 | 0.00 | 0.00 | 78 | 1020.6 |
| 20260831015333 | 75 | 130 | 0.0 | 0.0 | 0.00 | 0.00 | 0.00 | 78 | 1020.7 |
| 20260831014825 | 75 | 130 | 0.0 | 0.0 | 0.00 | 0.00 | 0.00 | 78 | 1020.7 |
| 20260831014316 | 75 | 130 | 0.0 | 0.0 | 0.00 | 0.00 | 0.00 | 77 | 1020.6 |
| 20260831013829 | 75 | 129 | 0.0 | 0.0 | 0.00 | 0.00 | 0.00 | 77 | 1020.6 |
| 20260831013321 | 75 | 129 | 0.0 | 0.0 | 0.00 | 0.00 | 0.00 | 77 | 1020.5 |
| 20260831012817 | 75 | 129 | 0.0 | 0.0 | 0.00 | 0.00 | 0.00 | 78 | 1020.5 |
| 20260831012350 | 74 | 129 | 0.0 | 0.0 | 0.00 | 0.00 | 0.00 | 78 | 1020.5 |
| 20260831011822 | 75 | 129 | 0.0 | 0.0 | 0.00 | 0.00 | 0.00 | 78 | 1020.5 |
| 20260831011333 | 75 | 129 | 0.0 | 0.0 | 0.00 | 0.00 | 0.00 | 80 | 1020.5 |
| 20260831010846 | 75 | 129 | 0.0 | 0.0 | 0.00 | 0.00 | 0.00 | 81 | 1020.4 |
| 20260831010317 | 75 | 129 | 0.0 | 0.0 | 0.00 | 0.00 | 0.00 | 81 | 1020.4 |
| 20260831005846 | 75 | 129 | 0.0 | 0.0 | 0.00 | 0.00 | 0.00 | 81 | 1020.4 |
| 20260831004847 | 75 | 129 | 0.0 | 0.0 | 0.00 | 0.00 | 0.00 | 80 | 1020.2 |
| 20260831003831 | 76 | 129 | 0.0 | 0.0 | 0.00 | 0.00 | 0.00 | 77 | 1019.9 |
| 20260831003326 | 76 | 129 | 0.0 | 0.0 | 0.00 | 0.00 | 0.00 | 75 | 1019.8 |
| 20260831002819 | 76 | 129 | 0.0 | 0.0 | 0.00 | 0.00 | 0.00 | 75 | 1019.8 |
| 20260831002331 | 76 | 129 | 0.0 | 0.0 | 0.00 | 0.00 | 0.00 | 75 | 1019.6 |
| 20260831001822 | 76 | 129 | 0.0 | 0.0 | 0.00 | 0.00 | 0.00 | 75 | 1019.6 |
| 20260831001333 | 76 | 129 | 0.0 | 0.0 | 0.00 | 0.00 | 0.00 | 75 | 1019.5 |
| 20260831000846 | 76 | 129 | 0.0 | 0.0 | 0.00 | 0.00 | 0.00 | 76 | 1019.4 |
| 20260831000318 | 76 | 130 | 0.0 | 0.0 | 0.00 | 0.00 | 0.00 | 76 | 1019.4 |
| 20260830235846 | 77 | 130 | 0.0 | 0.0 | 0.00 | 0.00 | 0.00 | 77 | 1019.3 |
| 20260830235317 | 77 | 130 | 0.0 | 0.0 | 0.00 | 0.00 | 0.00 | 78 | 1019.3 |
| 20260830234813 | 77 | 130 | 0.0 | 2.0 | 0.00 | 0.00 | 0.00 | 78 | 1019.2 |
| 20260830234326 | 77 | 45 | 0.0 | 2.0 | 0.00 | 0.00 | 0.00 | 79 | 1019.3 |
| 20260830233818 | 77 | 159 | 0.0 | 0.0 | 0.00 | 0.00 | 0.00 | 77 | 1019.3 |
| 20260830233350 | 78 | 159 | 0.0 | 0.0 | 0.00 | 0.00 | 0.00 | 77 | 1019.2 |
| 20260830232821 | 78 | 159 | 0.0 | 1.0 | 0.00 | 0.00 | 0.00 | 76 | 1019.1 |
| 20260830232333 | 78 | 159 | 0.0 | 1.0 | 0.00 | 0.00 | 0.00 | 76 | 1019.2 |
| 20260830231824 | 79 | 158 | 0.0 | 3.0 | 0.00 | 0.00 | 0.00 | 74 | 1019.2 |
| 20260830231316 | 79 | 157 | 1.0 | 3.0 | 0.00 | 0.00 | 0.00 | 74 | 1019.2 |
| 20260830230848 | 79 | 155 | 1.0 | 3.0 | 0.00 | 0.00 | 0.00 | 74 | 1019.3 |
| 20260830230319 | 80 | 146 | 0.0 | 3.0 | 0.00 | 0.00 | 0.00 | 74 | 1019.3 |
| 20260830225833 | 80 | 147 | 2.0 | 3.0 | 0.00 | 0.00 | 0.00 | 73 | 1019.4 |
| 20260830225324 | 81 | 149 | 0.0 | 2.0 | 0.00 | 0.00 | 0.00 | 71 | 1019.4 |
| 20260830224837 | 81 | 138 | 0.0 | 3.0 | 0.00 | 0.00 | 0.00 | 70 | 1019.5 |
| 20260830224328 | 81 | 148 | 0.0 | 3.0 | 0.00 | 0.00 | 0.00 | 69 | 1019.6 |
| 20260830223839 | 81 | 157 | 1.0 | 3.0 | 0.00 | 0.00 | 0.00 | 69 | 1019.5 |
| 20260830223351 | 81 | 163 | 1.0 | 5.0 | 0.00 | 0.00 | 0.00 | 69 | 1019.4 |
| 20260830222821 | 81 | 163 | 1.0 | 5.0 | 0.00 | 0.00 | 0.00 | 69 | 1019.4 |
| 20260830222353 | 81 | 173 | 2.0 | 5.0 | 0.00 | 0.00 | 0.00 | 71 | 1019.4 |
| 20260830221825 | 81 | 183 | 2.0 | 5.0 | 0.00 | 0.00 | 0.00 | 71 | 1019.3 |
| 20260830221317 | 81 | 169 | 1.0 | 5.0 | 0.00 | 0.00 | 0.00 | 72 | 1019.4 |
| 20260830220813 | 81 | 218 | 1.0 | 4.0 | 0.00 | 0.00 | 0.00 | 71 | 1019.3 |
| 20260830220325 | 81 | 176 | 1.0 | 5.0 | 0.00 | 0.00 | 0.00 | 70 | 1019.2 |
| 20260830215815 | 81 | 171 | 2.0 | 5.0 | 0.00 | 0.00 | 0.00 | 72 | 1019.3 |
| 20260830215327 | 81 | 173 | 0.0 | 4.0 | 0.00 | 0.00 | 0.00 | 70 | 1019.3 |
| 20260830214819 | 81 | 180 | 1.0 | 5.0 | 0.00 | 0.00 | 0.00 | 72 | 1019.3 |
| 20260830214332 | 81 | 115 | 1.0 | 4.0 | 0.00 | 0.00 | 0.00 | 73 | 1019.4 |
| 20260830213823 | 80 | 178 | 0.0 | 3.0 | 0.00 | 0.00 | 0.00 | 72 | 1019.3 |
| 20260830212827 | 80 | 179 | 0.0 | 3.0 | 0.00 | 0.00 | 0.00 | 73 | 1019.1 |
| 20260830212342 | 80 | 185 | 0.0 | 3.0 | 0.00 | 0.00 | 0.00 | 73 | 1019.1 |
| 20260830211813 | 81 | 165 | 1.0 | 4.0 | 0.00 | 0.00 | 0.00 | 73 | 1019.3 |
| 20260830211325 | 81 | 173 | 2.0 | 5.0 | 0.00 | 0.00 | 0.00 | 73 | 1019.2 |
| 20260830210817 | 81 | 173 | 0.0 | 4.0 | 0.00 | 0.00 | 0.00 | 70 | 1019.2 |
| 20260830210329 | 81 | 179 | 1.0 | 4.0 | 0.00 | 0.00 | 0.00 | 71 | 1019.2 |
| 20260830205819 | 81 | 176 | 0.0 | 5.0 | 0.00 | 0.00 | 0.00 | 72 | 1019.3 |
| 20260830205331 | 80 | 167 | 2.0 | 5.0 | 0.00 | 0.00 | 0.00 | 72 | 1019.3 |
| 20260830204843 | 80 | 165 | 1.0 | 6.0 | 0.00 | 0.00 | 0.00 | 73 | 1019.4 |
| 20260830204346 | 80 | 173 | 3.0 | 6.0 | 0.00 | 0.00 | 0.00 | 71 | 1019.4 |
| 20260830203816 | 81 | 169 | 2.0 | 7.0 | 0.00 | 0.00 | 0.00 | 69 | 1019.4 |
| 20260830203313 | 82 | 148 | 3.0 | 7.0 | 0.00 | 0.00 | 0.00 | 65 | 1019.5 |
| 20260830202825 | 82 | 153 | 2.0 | 9.0 | 0.00 | 0.00 | 0.00 | 62 | 1019.5 |
| 20260830202318 | 82 | 308 | 4.0 | 13.0 | 0.00 | 0.00 | 0.00 | 61 | 1019.4 |
| 20260830201829 | 83 | 291 | 7.0 | 14.0 | 0.00 | 0.00 | 0.00 | 59 | 1019.3 |
| 20260830201341 | 84 | 310 | 7.0 | 14.0 | 0.00 | 0.00 | 0.00 | 57 | 1019.4 |
| 20260830200852 | 85 | 277 | 3.0 | 8.0 | 0.00 | 0.00 | 0.00 | 56 | 1019.3 |
| 20260830200324 | 85 | 81 | 2.0 | 7.0 | 0.00 | 0.00 | 0.00 | 57 | 1019.4 |
| 20260830195853 | 86 | 281 | 2.0 | 7.0 | 0.00 | 0.00 | 0.00 | 56 | 1019.4 |
| 20260830195345 | 87 | 298 | 3.0 | 5.0 | 0.00 | 0.00 | 0.00 | 53 | 1019.4 |
| 20260830194815 | 87 | 317 | 3.0 | 7.0 | 0.00 | 0.00 | 0.00 | 55 | 1019.4 |
| 20260830194329 | 87 | 87 | 1.0 | 8.0 | 0.00 | 0.00 | 0.00 | 56 | 1019.6 |
| 20260830193824 | 87 | 117 | 3.0 | 8.0 | 0.00 | 0.00 | 0.00 | 55 | 1019.6 |
| 20260830193316 | 87 | 291 | 3.0 | 9.0 | 0.00 | 0.00 | 0.00 | 56 | 1019.7 |
| 20260830192828 | 87 | 283 | 2.0 | 9.0 | 0.00 | 0.00 | 0.00 | 57 | 1019.7 |
| 20260830192319 | 87 | 306 | 2.0 | 8.0 | 0.00 | 0.00 | 0.00 | 56 | 1019.8 |
| 20260830191852 | 87 | 302 | 4.0 | 7.0 | 0.00 | 0.00 | 0.00 | 56 | 1019.8 |